Location: Blue Mountain Vista Observatory
(40.6992°N, 75.9422°W)
Time: 16:58:25
(UTC-04:00)

Daily predictions for brighter satellites

Satellite Brightness Start Highest point End
(mag) Time Altitude Azimuth Time Altitude Azimuth Time Altitude Azimuth
Cosmos 1892 2.6 20:15:53 10° N 20:19:42 75° E 20:23:29 10° SSE
Cosmos 1110 Rocket 4.5 20:15:07 10° SSW 20:20:22 70° WNW 20:25:40 10° NNE
Cosmos 1400 Rocket 2.8 20:18:01 10° N 20:21:56 89° W 20:25:52 10° S
Cosmos 2263 Rocket 3.7 20:17:54 10° N 20:21:57 20° NE 20:25:59 10° E
GRACE-1 4.3 20:21:30 10° NNE 20:24:08 40° E 20:26:44 10° SSE
GRACE-2 4.3 20:21:55 10° NNE 20:24:31 39° E 20:27:07 10° SSE
CZ-4B DEB 4.4 20:22:30 10° ESE 20:24:38 18° ENE 20:26:47 10° NNE
Cosmos 2322 Rocket 2.9 20:22:18 10° SSE 20:27:10 31° ESE 20:32:03 10° NE
Meteor 1-29 4.3 20:25:16 10° NE 20:28:01 21° E 20:30:44 10° SSE
H-2A R/B 3.1 20:25:26 10° S 20:29:20 72° W 20:33:12 10° NNW
Meteor 2-3 Rocket 4.1 20:25:28 10° NNW 20:31:09 71° W 20:36:52 10° S
Envisat 3.7 20:26:49 10° SE 20:31:27 37° ENE 20:36:06 10° N
Cosmos 1302 Rocket 3.9 20:26:25 10° SSW 20:31:35 75° ESE 20:36:47 10° NNE
Cosmos 1315 Rocket 2.8 20:31:27 10° N 20:35:32 68° E 20:39:31 10° SSE
Cosmos 2360 Rocket 3.8 20:35:07 10° SE 20:37:59 14° E 20:40:52 10° ENE
Cosmos 1980 Rocket 2.5 20:32:35 10° SSW 20:38:14 74° WNW 20:43:58 10° NNE
USA 234 3.5 20:35:36 10° ESE 20:42:01 62° NE 20:48:27 10° NW
Cosmos 2026 Rocket 4.3 20:36:57 10° N 20:42:59 48° ENE 20:48:53 10° SSE
Intercosmos 25 Rocket 3.7 20:43:55 10° SSE 20:46:49 34° E 20:50:14 10° NNE
OTV 4 3.0 20:46:18 10° SW 20:47:07 11° SSW 20:47:57 10° S
Cosmos 1825 2.7 20:45:45 10° N 20:49:20 39° ENE 20:52:20 14° SE
CZ-2D R/B 3.8 20:45:53 10° S 20:49:44 61° W 20:53:36 10° NNW
SL-16 R/B 2.3 20:49:13 10° S 20:54:41 53° ESE 21:00:12 10° NNE
ATLAS 5 CENTAUR R/B 3.5 20:56:46 10° NNW 21:01:56 30° NE 21:06:11 15° E
Cosmos 1634 Rocket 4.0 20:55:44 10° S 21:02:01 89° W 21:08:23 10° N
Cosmos 1862 3.9 20:58:25 10° N 21:02:13 39° ENE 21:04:34 20° SE
Cosmos 1092 Rocket 4.4 20:57:30 10° NNW 21:03:48 69° W 21:10:04 10° S
Cosmos 1707 Rocket 4.4 20:59:51 10° SSW 21:04:13 55° W 21:08:34 10° N
Helios 1B rocket 2.3 21:00:18 10° NNE 21:04:26 86° ESE 21:08:31 10° SSW
ERS-1 Rocket 3.6 21:02:10 18° SE 21:05:19 37° ENE 21:09:55 10° N
USA 186 2.8 21:03:22 10° SSW 21:05:53 37° W 21:08:35 10° NNW
Lacrosse 4 Rocket 1.6 21:01:45 10° NNW 21:06:02 60° ENE 21:08:46 22° SE
Cosmos 1655 Rocket 4.1 21:03:27 10° N 21:09:49 64° E 21:15:36 12° SSE
ERBS 2.4 21:07:32 10° NW 21:11:00 76° SW 21:12:44 27° SE
Cosmos 1733 Rocket 3.2 21:06:56 10° N 21:11:20 55° E 21:14:14 20° SSE
SAR-Lupe-4 3.8 21:07:59 11° S 21:11:26 69° WSW 21:15:02 10° NNW
Cosmos 1939 Rocket 2.8 21:08:25 16° SSE 21:11:38 74° ENE 21:15:39 10° N
Meteor 2-20 Rocket 4.4 21:05:45 10° N 21:11:53 86° E 21:18:02 10° S
ARGOS 4.4 21:11:28 19° E 21:13:46 25° ENE 21:18:04 10° NNE
Cosmos 1862 Rocket 3.6 21:13:00 10° S 21:17:17 58° E 21:21:42 10° NNE
SeaSat 1 3.7 21:17:14 20° E 21:19:30 28° NE 21:23:38 10° N
USA 229 DEB 4.4 21:16:27 10° SSE 21:22:10 29° ESE 21:27:57 10° NE
USA 229 4.4 21:16:34 10° SSE 21:22:15 29° ESE 21:28:01 10° NE
Cosmos 1992 Rocket 3.9 21:19:02 10° S 21:24:13 72° ESE 21:29:28 10° NNE
Cosmos 1408 2.9 21:21:09 10° NNW 21:24:50 65° W 21:27:28 17° S
ORS 1 (USA 231) 4.4 21:22:41 10° W 21:25:46 80° S 21:26:23 53° ESE
Atlas Centaur 2 3.6 21:22:29 10° SW 21:28:44 31° SSE 21:31:32 25° SE
Terra 4.0 21:31:11 11° ENE 21:31:46 11° ENE 21:33:08 10° NE
Abrixas rocket 4.2 21:30:13 10° WNW 21:33:07 28° NNW 21:35:56 10° NE
Cosmos 2242 Rocket 4.4 21:31:22 10° SSW 21:35:46 52° W 21:40:11 10° N
Cosmos 1703 Rocket 4.2 21:37:04 35° E 21:37:19 35° E 21:41:22 10° NNE
Cosmos 2279 Rocket 4.2 21:37:04 10° SSW 21:43:18 73° W 21:49:33 10° N
MetOp-A 4.1 21:47:17 37° SE 21:49:23 69° ENE 21:54:43 10° N
Cosmos 1867 4.0 21:45:11 10° NNW 21:50:29 48° NE 21:52:05 37° E
Cosmos 489 Rocket 4.5 21:46:30 10° NNW 21:52:50 70° ENE 21:55:23 38° SE
H-2A R/B 2.8 21:52:50 31° E 21:53:24 32° ENE 21:57:47 10° N
Meteor 1-14 Rocket 4.4 21:48:38 10° N 21:54:12 55° ENE 21:55:47 42° SE
OAO 3 Rocket 3.6 21:51:46 10° WSW 21:56:26 43° S 21:56:38 43° S
YAOGAN 6 3.4 21:56:56 36° SW 21:57:58 47° W 22:01:30 10° NNW
SPOT 5 2.8 22:04:10 57° SE 22:05:02 73° ENE 22:09:44 10° N
Cosmos 968 Rocket 3.4 22:00:36 10° NNW 22:05:48 75° ENE 22:06:50 57° SE
Cosmos 2263 Rocket 2.4 22:00:50 10° NNW 22:06:20 63° WSW 22:08:25 37° S
COSMOS 2428 3.4 22:10:12 35° E 22:10:12 35° E 22:14:17 10° NE
Meteor 2-10 Rocket 3.9 22:05:36 18° SSW 22:09:58 75° W 22:15:48 10° N
Meteor 1-25 Rocket 4.3 22:04:36 10° N 22:10:05 54° ENE 22:10:47 51° ESE
Cosmos 2322 Rocket 3.7 22:05:57 10° SW 22:11:05 36° WNW 22:16:16 10° N
Sich 1 Rocket 3.8 22:11:22 10° NNW 22:15:48 66° W 22:16:31 56° SW
Cosmos 2360 Rocket 2.3 22:15:49 11° SSW 22:21:14 76° WNW 22:26:56 10° NNE
H-2A R/B 3.2 22:23:59 32° NE 22:23:59 32° NE 22:26:58 10° N
USA 234 4.1 22:22:54 30° SSW 22:25:11 38° SW 22:31:13 10° WNW
Cosmos 1908 Rocket 4.3 22:24:11 10° NNW 22:28:20 46° W 22:28:49 44° WSW
Cosmos 2322 3.8 22:25:27 23° SSW 22:29:06 76° WNW 22:34:50 10° NNE
Meteor 1-20 Rocket 4.1 22:24:14 10° N 22:29:48 72° E 22:30:10 69° ESE
USA 245 4.4 22:30:43 49° SSW 22:32:11 67° WSW 22:37:26 10° NNW
Meteor 1-22 4.4 22:32:51 10° N 22:38:15 85° E 22:38:20 84° ESE
SL-16 R/B 4.4 22:34:37 10° WSW 22:39:06 24° NW 22:43:39 10° N
SPOT 1/Viking Rocket 3.5 22:40:22 73° SW 22:40:38 75° WSW 22:45:53 10° NNW
Cosmos 1782 Rocket 4.1 22:38:07 10° NNW 22:41:59 54° WNW 22:41:59 54° WNW
Lacrosse 4 Rocket 4.0 22:42:17 10° WNW 22:44:16 13° WSW 22:45:08 12° WSW
Okean 2 Rocket 3.6 22:41:12 10° N 22:44:59 60° NNW 22:44:59 60° NNW
ATLAS 5 CENTAUR R/B 2.6 22:41:01 10° NW 22:47:00 59° WSW 22:47:45 55° SSW
Cosmos 2333 Rocket 3.7 22:52:12 24° NE 22:52:12 24° NE 22:54:46 10° NE
Cosmos 2333 4.3 22:51:47 64° NE 22:51:47 64° NE 22:56:45 10° NNE
Cosmos 1782 4.5 22:53:34 30° N 22:53:34 30° N 22:55:42 10° N
Landsat 7 4.2 22:54:27 62° NNW 22:54:27 62° NNW 22:58:26 10° NNW
ARGOS 3.9 22:52:59 40° WSW 22:53:44 43° W 22:58:51 10° NNW
Milstar 3 4.4 22:50:18 10° WSW 22:53:10 18° SW 22:53:10 18° SW
Cosmos 2237 Rocket 4.1 22:59:46 18° NE 22:59:46 18° NE 23:01:29 10° NE
SeaSat 1 3.3 22:57:02 41° WSW 22:57:02 41° WSW 23:01:29 10° NW
Cosmos 2278 Rocket 3.3 22:55:23 10° N 23:00:07 33° NE 23:00:07 33° NE
Cosmos 1417 Rocket 4.4 23:03:56 80° ENE 23:03:56 80° ENE 23:10:07 10° N
Cosmos 1745 Rocket 4.3 22:59:49 10° N 23:05:30 54° ENE 23:05:30 54° ENE
Cosmos 1777 Rocket 4.5 23:02:06 10° NNW 23:06:40 57° WNW 23:06:40 57° WNW
Terra 2.6 23:10:04 49° NNW 23:10:04 49° NNW 23:13:34 10° NNW
NOSS 3-1 (C) 4.2 23:11:31 39° NE 23:11:31 39° NE 23:15:33 10° NE
Cosmos 1844 Rocket 2.8 23:04:12 10° NNW 23:09:04 68° NNW 23:09:04 68° NNW
Meteor 1-27 Rocket 4.3 23:12:59 50° NNE 23:12:59 50° NNE 23:17:10 10° NNE
USA 229 DEB 4.2 23:06:02 10° SW 23:12:43 56° NW 23:19:34 10° NNE
USA 229 4.2 23:06:06 10° SW 23:12:48 57° NW 23:19:39 10° NNE
Atlas Centaur 2 4.1 23:10:27 10° WSW 23:14:12 28° SW 23:14:12 28° SW
Cosmos 2219 Rocket 2.9 23:28:37 48° NNE 23:28:37 48° NNE 23:32:37 10° NNE
CZ-4C R/B 3.2 23:24:33 10° NNW 23:31:31 54° NE 23:32:09 53° ENE
H-2A R/B 3.6 23:33:27 27° W 23:33:27 27° W 23:37:04 10° NW
Meteor 1-11 Rocket 4.3 23:28:54 10° NNW 23:33:08 54° NNW 23:33:08 54° NNW
Cosmos 1553 Rocket 4.4 23:48:00 56° WNW 23:48:00 56° WNW 23:53:48 10° N
COSMOS 2428 4.2 23:52:07 28° W 23:53:22 31° WNW 23:58:25 10° N
